TimeHST,TemperatureF,Dew PointF,Humidity,Sea Level PressureIn,VisibilityMPH,Wind Direction,Wind SpeedMPH,Gust SpeedMPH,PrecipitationIn,Events,Conditions,WindDirDegrees,DateUTC
12:53 AM,73.0,69.1,87,29.98,10.0,SSW,3.5,-,N/A,,Scattered Clouds,210,2013-11-19 10:53:00
1:13 AM,73.0,69.1,87,29.98,10.0,SW,4.6,-,N/A,,Mostly Cloudy,230,2013-11-19 11:13:00
1:27 AM,72.0,69.1,91,29.97,10.0,SW,4.6,-,N/A,,Mostly Cloudy,230,2013-11-19 11:27:00
1:53 AM,72.0,68.0,87,29.96,10.0,SW,5.8,-,N/A,,Scattered Clouds,230,2013-11-19 11:53:00
2:53 AM,70.0,66.9,90,29.95,10.0,SW,4.6,-,N/A,,Partly Cloudy,230,2013-11-19 12:53:00
3:53 AM,70.0,66.0,87,29.95,10.0,SW,5.8,-,N/A,,Mostly Cloudy,230,2013-11-19 13:53:00
4:53 AM,70.0,64.0,81,29.96,10.0,SW,6.9,-,N/A,,Mostly Cloudy,230,2013-11-19 14:53:00
5:53 AM,71.1,64.0,78,29.96,10.0,SW,5.8,-,N/A,,Mostly Cloudy,230,2013-11-19 15:53:00
6:53 AM,72.0,64.9,78,29.98,10.0,SW,4.6,-,N/A,,Mostly Cloudy,230,2013-11-19 16:53:00
7:53 AM,75.9,66.9,74,29.99,10.0,WSW,4.6,-,N/A,,Mostly Cloudy,240,2013-11-19 17:53:00
8:53 AM,79.0,70.0,74,30.01,10.0,South,3.5,-,N/A,,Mostly Cloudy,170,2013-11-19 18:53:00
9:53 AM,80.1,69.1,69,29.99,10.0,SE,8.1,-,N/A,,Overcast,140,2013-11-19 19:53:00
10:53 AM,81.0,70.0,69,29.98,10.0,ESE,10.4,-,N/A,,Mostly Cloudy,120,2013-11-19 20:53:00
11:53 AM,81.0,72.0,74,29.97,10.0,SE,9.2,-,0.00,Rain,Light Rain,130,2013-11-19 21:53:00
12:08 PM,80.1,71.1,74,29.96,10.0,SE,10.4,-,N/A,,Mostly Cloudy,140,2013-11-19 22:08:00
12:53 PM,82.9,71.1,67,29.94,10.0,ESE,13.8,-,N/A,,Mostly Cloudy,120,2013-11-19 22:53:00
1:53 PM,81.0,69.1,67,29.91,10.0,SE,11.5,-,N/A,,Mostly Cloudy,130,2013-11-19 23:53:00
2:53 PM,80.1,70.0,71,29.91,10.0,SSE,8.1,-,0.00,,Overcast,160,2013-11-20 00:53:00
3:53 PM,79.0,70.0,74,29.91,10.0,SE,6.9,-,N/A,,Overcast,140,2013-11-20 01:53:00
4:53 PM,78.1,70.0,76,29.93,10.0,South,4.6,-,N/A,,Overcast,180,2013-11-20 02:53:00
7:53 PM,73.9,70.0,87,29.96,10.0,SSW,5.8,-,N/A,,Clear,200,2013-11-20 05:53:00
11:53 PM,70.0,66.0,87,29.99,10.0,SW,5.8,-,N/A,,Clear,220,2013-11-20 09:53:00